This demonstration page uses our WeatherBlox Daily Observations layout. Learn more.

Left ArrowRight Arrow

39.08367, -84.50855

Hourly Observations for January 24, 2015

Temp ( °F °C ) Dew Point ( °F °C ) Humidity (%) Winds ( mph kmh ) Pressure ( in mb ) Visibility ( mi km ) Precip ( " mm )
12:53 am 00:53 Partly Cloudy 33 0.6 26 -3.3 75 75 N 5 7 29.86 1011 8 12.87472 0 0
1:53 am 01:53 Mostly Cloudy 33 0.6 26 -3.3 75 75 NNW 6 9 29.85 1011 8 12.87472 0 0
2:36 am 02:36 Mostly Cloudy 30 -1 27 -3 86 86 NNW 9 15 29.85 1011 7 11.26538 0 0
2:53 am 02:53 Mostly Cloudy 30 -1.1 26 -3.3 85 85 WNW 7 11 29.85 1011 7 11.26538 0 0
3:07 am 03:07 Partly Cloudy 29 -1.7 25 -3.9 85 85 WNW 6 9 29.88 1012 7 11.26538 0 0
3:35 am 03:35 Mostly Cloudy 29 -1.7 25 -3.9 85 85 W 6 9 29.88 1012 7 11.26538 0 0
3:53 am 03:53 Cloudy 29 -1.7 24 -4.4 82 82 VRB 6 9 29.84 1011 9 14.48406 0 0
4:53 am 04:53 Cloudy 29 -1.7 23 -5 78 78 VRB 7 11 29.83 1010 10 16.0934 0 0
5:53 am 05:53 Cloudy 29 -1.7 22 -5.6 75 75 WNW 7 11 29.83 1010 10 16.0934 0 0
6:53 am 06:53 Mostly Cloudy 28 -2.2 21 -6.1 75 75 NW 6 9 29.84 1011 10 16.0934 0 0
7:04 am 07:04 Partly Cloudy 27 -3 21 -6 80 80 NNW 6 9 29.88 1012 10 16.0934 0 0
7:53 am 07:53 Sunny 24 -4.4 20 -6.7 84 84 SW 5 7 29.84 1010 9 14.48406 0 0
8:53 am 08:53 Cloudy 29 -1.7 23 -5 78 78 SW 8 13 29.82 1010 9 14.48406 0 0
9:53 am 09:53 Partly Cloudy 29 -1.7 23 -5 78 78 SW 8 13 29.83 1010 10 16.0934 0 0
10:53 am 10:53 Sunny 34 1.1 24 -4.4 67 67 SW 9 15 29.82 1010 10 16.0934 0 0
11:53 am 11:53 Sunny 38 3.3 26 -3.3 62 62 SW 12 19 29.78 1009 10 16.0934 0 0
12:53 pm 12:53 Sunny 40 4.4 26 -3.3 58 58 SSW 13 20 29.74 1007 10 16.0934 0 0
1:53 pm 13:53 Mostly Cloudy 42 5.6 26 -3.3 53 53 W 17 28 29.72 1007 10 16.0934 0 0
2:53 pm 14:53 Cloudy 41 5 26 -3.3 55 55 W 10 17 29.72 1006 10 16.0934 0 0
3:53 pm 15:53 Cloudy 39 3.9 27 -2.8 62 62 WNW 17 28 29.74 1007 9 14.48406 0 0
4:53 pm 16:53 Cloudy 39 3.9 28 -2.2 65 65 WSW 12 19 29.75 1007 8 12.87472 0 0
5:53 pm 17:53 Clear 36 2.2 27 -2.8 70 70 WSW 9 15 29.77 1008 10 16.0934 0 0
6:53 pm 18:53 Clear 33 0.6 26 -3.3 75 75 SW 7 11 29.81 1009 10 16.0934 0 0
7:53 pm 19:53 Clear 34 1.1 27 -2.8 76 76 SW 6 9 29.83 1010 10 16.0934 0 0
8:53 pm 20:53 Partly Cloudy 31 -0.6 26 -3.3 82 82 S 3 6 29.84 1011 10 16.0934 0 0
9:53 pm 21:53 Clear 27 -2.8 25 -3.9 92 92 SW 5 7 29.84 1011 7 11.26538 0 0
10:53 pm 22:53 Mostly Cloudy 29 -1.7 27 -2.8 92 92 SW 6 9 29.82 1010 7 11.26538 0 0
11:53 pm 23:53 Clear 31 -0.6 28 -2.2 89 89 Calm 29.82 1010 7 11.26538 0 0

Powered by AerisWeather